| time (UTC) | temp F | wind direction | speed knots | gust knots | rain 1hr in | rain 24hr in | rain mn in | humidity % | barometer mb |
| 20260507231554 | 54 | 249 | 7.0 | 8.7 | 0.00 | 0.00 | 0.00 | 47 | 1011.9 |
| 20260507231051 | 55 | 292 | 2.6 | 7.0 | 0.00 | 0.00 | 0.00 | 46 | 1011.9 |
| 20260507230548 | 54 | 304 | 4.3 | 8.7 | 0.00 | 0.00 | 0.00 | 47 | 1011.8 |
| 20260507230044 | 54 | 275 | 2.6 | 7.8 | 0.00 | 0.00 | 0.00 | 49 | 1011.9 |
| 20260507225539 | 55 | 269 | 1.7 | 6.1 | 0.00 | 0.00 | 0.00 | 48 | 1011.9 |
| 20260507225036 | 55 | 309 | 5.2 | 7.8 | 0.00 | 0.00 | 0.00 | 46 | 1012.0 |
| 20260507224531 | 54 | 296 | 1.7 | 9.6 | 0.00 | 0.00 | 0.00 | 47 | 1011.9 |
| 20260507224028 | 55 | 268 | 1.7 | 7.0 | 0.00 | 0.00 | 0.00 | 47 | 1011.8 |
| 20260507223524 | 55 | 284 | 3.5 | 8.7 | 0.00 | 0.00 | 0.00 | 46 | 1011.8 |
| 20260507223021 | 56 | 290 | 4.3 | 7.0 | 0.00 | 0.00 | 0.00 | 48 | 1011.7 |
| 20260507222519 | 56 | 293 | 4.3 | 6.1 | 0.00 | 0.00 | 0.00 | 48 | 1011.7 |
| 20260507222015 | 55 | 262 | 5.2 | 7.8 | 0.00 | 0.00 | 0.00 | 49 | 1011.7 |
| 20260507221511 | 55 | 273 | 5.2 | 7.8 | 0.00 | 0.00 | 0.00 | 47 | 1011.8 |
| 20260507221008 | 56 | 305 | 3.5 | 8.7 | 0.00 | 0.00 | 0.00 | 46 | 1011.6 |
| 20260507220506 | 56 | 270 | 4.3 | 5.2 | 0.00 | 0.00 | 0.00 | 48 | 1011.6 |
| 20260507220003 | 56 | 294 | 1.7 | 7.0 | 0.00 | 0.00 | 0.00 | 47 | 1011.4 |
| 20260507215459 | 56 | 2 | 1.7 | 7.8 | 0.00 | 0.00 | 0.00 | 45 | 1011.2 |
| 20260507214957 | 56 | 278 | 2.6 | 2.6 | 0.00 | 0.00 | 0.00 | 48 | 1011.3 |
| 20260507214454 | 55 | 261 | 3.5 | 6.1 | 0.00 | 0.00 | 0.00 | 47 | 1011.3 |
| 20260507213949 | 55 | 294 | 5.2 | 7.8 | 0.00 | 0.00 | 0.00 | 47 | 1011.4 |
| 20260507213447 | 56 | 353 | 3.5 | 6.1 | 0.00 | 0.00 | 0.00 | 47 | 1011.3 |
| 20260507212943 | 57 | 303 | 2.6 | 11.3 | 0.00 | 0.00 | 0.00 | 46 | 1011.5 |
| 20260507212439 | 58 | 273 | 9.6 | 11.3 | 0.00 | 0.00 | 0.00 | 48 | 1011.3 |
| 20260507211936 | 57 | 297 | 6.1 | 8.7 | 0.00 | 0.00 | 0.00 | 46 | 1011.2 |
| 20260507211427 | 56 | 328 | 6.1 | 11.3 | 0.00 | 0.00 | 0.00 | 45 | 1011.2 |
| 20260507210923 | 57 | 295 | 3.5 | 7.0 | 0.00 | 0.00 | 0.00 | 48 | 1011.3 |
| 20260507210420 | 56 | 256 | 5.2 | 7.0 | 0.00 | 0.00 | 0.00 | 47 | 1011.3 |
| 20260507205917 | 56 | 308 | 4.3 | 7.8 | 0.00 | 0.00 | 0.00 | 48 | 1011.5 |
| 20260507205415 | 56 | 289 | 7.8 | 8.7 | 0.00 | 0.00 | 0.00 | 49 | 1010.8 |
| 20260507204910 | 58 | 296 | 1.7 | 7.0 | 0.00 | 0.00 | 0.00 | 47 | 1010.9 |
| 20260507204407 | 56 | 294 | 3.5 | 6.1 | 0.00 | 0.00 | 0.00 | 54 | 1011.2 |
| 20260507203905 | 56 | 256 | 5.2 | 7.0 | 0.00 | 0.00 | 0.00 | 49 | 1011.3 |
| 20260507203402 | 55 | 294 | 1.7 | 6.1 | 0.00 | 0.00 | 0.00 | 50 | 1011.4 |
| 20260507202858 | 55 | 114 | 3.5 | 5.2 | 0.00 | 0.00 | 0.00 | 51 | 1011.4 |
| 20260507202355 | 55 | 291 | 3.5 | 8.7 | 0.00 | 0.00 | 0.00 | 52 | 1011.5 |
| 20260507201850 | 56 | 303 | 2.6 | 8.7 | 0.00 | 0.00 | 0.00 | 48 | 1011.3 |
| 20260507201346 | 56 | 36 | 3.5 | 7.8 | 0.00 | 0.00 | 0.00 | 47 | 1011.3 |
| 20260507200843 | 57 | 279 | 6.1 | 7.0 | 0.00 | 0.00 | 0.00 | 48 | 1011.4 |
| 20260507200339 | 56 | 288 | 2.6 | 7.8 | 0.00 | 0.00 | 0.00 | 51 | 1011.6 |
| 20260507195835 | 58 | 254 | 3.5 | 8.7 | 0.00 | 0.00 | 0.00 | 49 | 1011.6 |
| 20260507195332 | 57 | 279 | 1.7 | 5.2 | 0.00 | 0.00 | 0.00 | 51 | 1011.6 |
| 20260507194829 | 56 | 274 | 8.7 | 12.2 | 0.00 | 0.00 | 0.00 | 46 | 1011.8 |
| 20260507194325 | 58 | 178 | 3.5 | 7.8 | 0.00 | 0.00 | 0.00 | 48 | 1011.8 |
| 20260507193822 | 57 | 305 | 1.7 | 6.1 | 0.00 | 0.00 | 0.00 | 48 | 1011.9 |
| 20260507193319 | 55 | 277 | 6.1 | 7.8 | 0.00 | 0.00 | 0.00 | 54 | 1011.8 |
| 20260507192814 | 55 | 317 | 2.6 | 7.8 | 0.00 | 0.00 | 0.00 | 49 | 1011.9 |
| 20260507192312 | 56 | 297 | 3.5 | 7.0 | 0.00 | 0.00 | 0.00 | 49 | 1011.7 |
| 20260507191808 | 56 | 292 | 1.7 | 2.6 | 0.00 | 0.00 | 0.00 | 55 | 1011.9 |
| 20260507191304 | 56 | 264 | 2.6 | 2.6 | 0.00 | 0.00 | 0.00 | 50 | 1011.8 |
| 20260507190801 | 55 | 300 | 1.7 | 1.7 | 0.00 | 0.00 | 0.00 | 50 | 1011.8 |
| 20260507190300 | 55 | 42 | 1.7 | 3.5 | 0.00 | 0.00 | 0.00 | 50 | 1011.9 |
| 20260507185758 | 56 | 329 | 3.5 | 6.1 | 0.00 | 0.00 | 0.00 | 50 | 1011.8 |
| 20260507185254 | 56 | 298 | 0.9 | 5.2 | 0.00 | 0.00 | 0.00 | 48 | 1011.8 |
| 20260507184752 | 55 | 31 | 2.6 | 7.0 | 0.00 | 0.00 | 0.00 | 53 | 1012.2 |
| 20260507184250 | 56 | 324 | 3.5 | 6.1 | 0.00 | 0.00 | 0.00 | 51 | 1012.1 |
| 20260507183747 | 55 | 278 | 12.2 | 14.8 | 0.00 | 0.00 | 0.00 | 51 | 1012.1 |
| 20260507183244 | 56 | 255 | 6.1 | 8.7 | 0.00 | 0.00 | 0.00 | 48 | 1012.2 |
| 20260507182742 | 58 | 288 | 5.2 | 8.7 | 0.00 | 0.00 | 0.00 | 46 | 1012.2 |
| 20260507182241 | 57 | 271 | 7.8 | 9.6 | 0.00 | 0.00 | 0.00 | 48 | 1012.1 |
| 20260507181739 | 56 | 276 | 3.5 | 7.0 | 0.00 | 0.00 | 0.00 | 49 | 1012.2 |
| 20260507181235 | 57 | 232 | 9.6 | 19.1 | 0.00 | 0.00 | 0.00 | 48 | 1012.0 |
| 20260507180732 | 57 | 318 | 3.5 | 7.0 | 0.00 | 0.00 | 0.00 | 48 | 1012.1 |
| 20260507180229 | 56 | 241 | 3.5 | 8.7 | 0.00 | 0.00 | 0.00 | 53 | 1011.9 |
| 20260507175724 | 56 | 262 | 5.2 | 9.6 | 0.00 | 0.00 | 0.00 | 52 | 1012.1 |
| 20260507175221 | 56 | 261 | 6.1 | 9.6 | 0.00 | 0.00 | 0.00 | 48 | 1012.3 |
| 20260507174719 | 56 | 311 | 2.6 | 3.5 | 0.00 | 0.00 | 0.00 | 51 | 1012.1 |
| 20260507174217 | 56 | 289 | 3.5 | 6.1 | 0.00 | 0.00 | 0.00 | 48 | 1012.4 |
| 20260507173714 | 56 | 286 | 7.0 | 11.3 | 0.00 | 0.00 | 0.00 | 48 | 1012.5 |
| 20260507173210 | 56 | 272 | 5.2 | 11.3 | 0.00 | 0.00 | 0.00 | 56 | 1012.4 |
| 20260507172707 | 56 | 219 | 5.2 | 7.0 | 0.00 | 0.00 | 0.00 | 55 | 1012.4 |
| 20260507172204 | 56 | 248 | 9.6 | 13.0 | 0.00 | 0.00 | 0.00 | 51 | 1012.6 |
| 20260507171704 | 55 | 247 | 3.5 | 5.2 | 0.00 | 0.00 | 0.00 | 53 | 1012.7 |
| 20260507171202 | 53 | 258 | 6.1 | 8.7 | 0.00 | 0.00 | 0.00 | 54 | 1012.8 |
| 20260507170659 | 55 | 280 | 1.7 | 7.8 | 0.00 | 0.00 | 0.00 | 55 | 1012.8 |
| 20260507170156 | 56 | 243 | 4.3 | 7.0 | 0.00 | 0.00 | 0.00 | 54 | 1012.8 |
| 20260507165651 | 55 | 257 | 2.6 | 7.0 | 0.00 | 0.00 | 0.00 | 50 | 1012.8 |
| 20260507165148 | 55 | 262 | 3.5 | 5.2 | 0.00 | 0.00 | 0.00 | 48 | 1012.8 |
| 20260507164644 | 54 | 297 | 4.3 | 6.1 | 0.00 | 0.00 | 0.00 | 53 | 1013.1 |
| 20260507164141 | 56 | 291 | 3.5 | 6.1 | 0.00 | 0.00 | 0.00 | 57 | 1012.8 |
| 20260507163638 | 54 | 295 | 0.9 | 2.6 | 0.00 | 0.00 | 0.00 | 57 | 1013.0 |
| 20260507163136 | 55 | 294 | 1.7 | 7.0 | 0.00 | 0.00 | 0.00 | 53 | 1013.2 |
| 20260507162632 | 56 | 265 | 5.2 | 7.8 | 0.00 | 0.00 | 0.00 | 52 | 1013.2 |
| 20260507162128 | 55 | 289 | 4.3 | 7.0 | 0.00 | 0.00 | 0.00 | 59 | 1013.3 |
| 20260507161624 | 55 | 357 | 0.0 | 3.5 | 0.00 | 0.00 | 0.00 | 49 | 1013.1 |
| 20260507161121 | 54 | 255 | 7.8 | 8.7 | 0.00 | 0.00 | 0.00 | 50 | 1013.4 |
| 20260507160617 | 54 | 281 | 4.3 | 11.3 | 0.00 | 0.00 | 0.00 | 52 | 1013.3 |
| 20260507160114 | 55 | 6 | 4.3 | 6.1 | 0.00 | 0.00 | 0.00 | 50 | 1013.2 |
| 20260507155609 | 56 | 319 | 0.9 | 2.6 | 0.00 | 0.00 | 0.00 | 53 | 1013.3 |
| 20260507155106 | 54 | 35 | 1.7 | 3.5 | 0.00 | 0.00 | 0.00 | 56 | 1013.3 |
| 20260507154603 | 54 | 311 | 0.0 | 1.7 | 0.00 | 0.00 | 0.00 | 54 | 1013.5 |
| 20260507154100 | 53 | 295 | 2.6 | 7.8 | 0.00 | 0.00 | 0.00 | 52 | 1013.4 |
| 20260507153557 | 53 | 302 | 4.3 | 13.0 | 0.00 | 0.00 | 0.00 | 52 | 1013.6 |
| 20260507153053 | 53 | 356 | 0.0 | 2.6 | 0.00 | 0.00 | 0.00 | 51 | 1013.5 |
| 20260507152550 | 54 | 278 | 1.7 | 6.1 | 0.00 | 0.00 | 0.00 | 50 | 1013.4 |
| 20260507152046 | 54 | 282 | 3.5 | 3.5 | 0.00 | 0.00 | 0.00 | 51 | 1013.7 |
| 20260507151542 | 53 | 5 | 1.7 | 6.1 | 0.00 | 0.00 | 0.00 | 53 | 1013.7 |
| 20260507151039 | 53 | 5 | 4.3 | 6.1 | 0.00 | 0.00 | 0.00 | 52 | 1013.7 |
| 20260507150536 | 53 | 359 | 3.5 | 5.2 | 0.00 | 0.00 | 0.00 | 50 | 1013.7 |
| 20260507150033 | 52 | 244 | 5.2 | 7.8 | 0.00 | 0.00 | 0.00 | 57 | 1013.7 |
| 20260507145527 | 53 | 321 | 0.9 | 1.7 | 0.00 | 0.00 | 0.00 | 57 | 1013.8 |
| 20260507145026 | 53 | 324 | 4.3 | 7.8 | 0.00 | 0.00 | 0.00 | 50 | 1013.8 |
| 20260507144522 | 52 | 281 | 2.6 | 6.1 | 0.00 | 0.00 | 0.00 | 53 | 1014.0 |
| 20260507144020 | 52 | 252 | 4.3 | 5.2 | 0.00 | 0.00 | 0.00 | 59 | 1014.0 |
| 20260507143517 | 52 | 234 | 1.7 | 3.5 | 0.00 | 0.00 | 0.00 | 57 | 1014.0 |
| 20260507143014 | 52 | 48 | 0.0 | 1.7 | 0.00 | 0.00 | 0.00 | 51 | 1014.2 |
| 20260507142509 | 51 | 304 | 3.5 | 5.2 | 0.00 | 0.00 | 0.00 | 54 | 1014.2 |
| 20260507142007 | 51 | 309 | 4.3 | 7.8 | 0.00 | 0.00 | 0.00 | 55 | 1013.9 |
| 20260507141502 | 52 | 283 | 0.9 | 6.1 | 0.00 | 0.00 | 0.00 | 59 | 1014.3 |
| 20260507140959 | 52 | 23 | 0.9 | 2.6 | 0.00 | 0.00 | 0.00 | 56 | 1014.4 |
| 20260507140455 | 52 | 282 | 2.6 | 7.0 | 0.00 | 0.00 | 0.00 | 61 | 1014.5 |
| 20260507135953 | 52 | 273 | 1.7 | 3.5 | 0.00 | 0.00 | 0.00 | 61 | 1014.7 |
| 20260507135450 | 51 | 311 | 3.5 | 3.5 | 0.00 | 0.00 | 0.00 | 60 | 1014.6 |
| 20260507134948 | 51 | 311 | 2.6 | 6.1 | 0.00 | 0.00 | 0.00 | 59 | 1014.6 |
| 20260507134444 | 50 | 23 | 0.9 | 6.1 | 0.00 | 0.00 | 0.00 | 62 | 1014.7 |
| 20260507133940 | 51 | 306 | 1.7 | 3.5 | 0.00 | 0.00 | 0.00 | 60 | 1014.7 |
| 20260507133436 | 50 | 275 | 2.6 | 3.5 | 0.00 | 0.00 | 0.00 | 68 | 1014.9 |
| 20260507132935 | 50 | 302 | 0.9 | 3.5 | 0.00 | 0.00 | 0.00 | 70 | 1014.7 |
| 20260507132430 | 50 | 48 | 1.7 | 2.6 | 0.00 | 0.00 | 0.00 | 64 | 1014.9 |
| 20260507131927 | 50 | 292 | 1.7 | 5.2 | 0.00 | 0.00 | 0.00 | 62 | 1015.0 |
| 20260507131424 | 49 | 310 | 0.9 | 6.1 | 0.00 | 0.00 | 0.00 | 65 | 1014.9 |
| 20260507130921 | 49 | 232 | 3.5 | 3.5 | 0.00 | 0.00 | 0.00 | 68 | 1014.7 |
| 20260507130418 | 49 | 289 | 1.7 | 1.7 | 0.00 | 0.00 | 0.00 | 76 | 1014.9 |
| 20260507125917 | 49 | 217 | 2.6 | 5.2 | 0.00 | 0.00 | 0.00 | 71 | 1015.0 |
| 20260507125415 | 48 | 246 | 0.0 | 5.2 | 0.00 | 0.00 | 0.00 | 75 | 1014.9 |
| 20260507124912 | 48 | 273 | 0.9 | 2.6 | 0.00 | 0.00 | 0.00 | 74 | 1014.7 |
| 20260507124407 | 48 | 206 | 1.7 | 2.6 | 0.00 | 0.00 | 0.00 | 73 | 1015.0 |
| 20260507123906 | 47 | 233 | 0.0 | 1.7 | 0.00 | 0.00 | 0.00 | 76 | 1015.0 |
| 20260507123403 | 47 | 274 | 0.9 | 2.6 | 0.00 | 0.00 | 0.00 | 80 | 1015.1 |
| 20260507122859 | 47 | 260 | 0.9 | 1.7 | 0.00 | 0.00 | 0.00 | 83 | 1015.0 |
| 20260507122355 | 46 | 288 | 0.9 | 2.6 | 0.00 | 0.00 | 0.00 | 81 | 1015.0 |
| 20260507121851 | 47 | 229 | 0.0 | 0.9 | 0.00 | 0.00 | 0.00 | 86 | 1014.9 |
| 20260507121347 | 46 | 206 | 0.0 | 1.7 | 0.00 | 0.00 | 0.00 | 86 | 1014.9 |
| 20260507120844 | 45 | 208 | 0.9 | 1.7 | 0.00 | 0.00 | 0.00 | 89 | 1014.7 |
| 20260507120340 | 45 | 219 | 0.0 | 0.9 | 0.00 | 0.00 | 0.00 | 91 | 1014.9 |
| 20260507115836 | 44 | 236 | 0.0 | 0.0 | 0.00 | 0.00 | 0.00 | 92 | 1014.6 |
| 20260507115332 | 44 | 250 | 0.0 | 0.0 | 0.00 | 0.00 | 0.00 | 94 | 1014.7 |
| 20260507114828 | 44 | 255 | 0.0 | 0.0 | 0.00 | 0.00 | 0.00 | 97 | 1014.7 |
| 20260507114325 | 43 | 7 | 0.0 | 0.0 | 0.00 | 0.00 | 0.00 | 99 | 1014.9 |
| 20260507113823 | 43 | 7 | 0.0 | 0.0 | 0.00 | 0.00 | 0.00 | 99 | 1014.7 |
| 20260507113319 | 42 | 353 | 0.0 | 0.0 | 0.00 | 0.00 | 0.00 | 99 | 1014.6 |
| 20260507112817 | 42 | 352 | 0.0 | 0.0 | 0.00 | 0.00 | 0.00 | 98 | 1014.9 |
| 20260507112314 | 42 | 352 | 0.0 | 0.0 | 0.00 | 0.00 | 0.00 | 98 | 1014.4 |
| 20260507111812 | 41 | 352 | 0.0 | 0.0 | 0.00 | 0.00 | 0.00 | 98 | 1014.5 |
| 20260507111308 | 41 | 352 | 0.0 | 0.0 | 0.00 | 0.00 | 0.00 | 98 | 1014.5 |
| 20260507110804 | 41 | 352 | 0.0 | 0.0 | 0.00 | 0.00 | 0.00 | 98 | 1014.2 |
| 20260507110301 | 41 | 353 | 0.0 | 0.0 | 0.00 | 0.00 | 0.00 | 98 | 1014.4 |
| 20260507105758 | 41 | 353 | 0.0 | 0.0 | 0.00 | 0.00 | 0.00 | 97 | 1014.2 |
| 20260507105254 | 41 | 353 | 0.0 | 0.0 | 0.00 | 0.00 | 0.00 | 96 | 1014.1 |
| 20260507104751 | 41 | 353 | 0.0 | 0.0 | 0.00 | 0.00 | 0.00 | 96 | 1014.1 |
| 20260507104248 | 41 | 353 | 0.0 | 0.0 | 0.00 | 0.00 | 0.00 | 96 | 1014.2 |
| 20260507103743 | 41 | 353 | 0.0 | 0.0 | 0.00 | 0.00 | 0.00 | 96 | 1014.3 |
| 20260507103235 | 42 | 353 | 0.0 | 0.0 | 0.00 | 0.00 | 0.00 | 96 | 1014.1 |
| 20260507102731 | 42 | 354 | 0.0 | 0.0 | 0.00 | 0.00 | 0.00 | 96 | 1014.1 |
| 20260507102228 | 42 | 353 | 0.0 | 0.0 | 0.00 | 0.00 | 0.00 | 96 | 1014.0 |
| 20260507101723 | 42 | 353 | 0.0 | 0.0 | 0.00 | 0.00 | 0.00 | 96 | 1014.1 |
| 20260507101213 | 42 | 353 | 0.0 | 0.0 | 0.00 | 0.00 | 0.00 | 96 | 1014.1 |
| 20260507100711 | 42 | 353 | 0.0 | 0.0 | 0.00 | 0.00 | 0.00 | 96 | 1014.0 |
| 20260507100209 | 42 | 353 | 0.0 | 0.0 | 0.00 | 0.00 | 0.00 | 96 | 1014.0 |
| 20260507095707 | 42 | 353 | 0.0 | 0.0 | 0.00 | 0.00 | 0.00 | 96 | 1013.8 |
| 20260507095203 | 42 | 353 | 0.0 | 0.0 | 0.00 | 0.00 | 0.00 | 96 | 1014.0 |
| 20260507094700 | 42 | 353 | 0.0 | 0.0 | 0.00 | 0.00 | 0.00 | 97 | 1014.0 |
| 20260507094156 | 42 | 353 | 0.0 | 0.0 | 0.00 | 0.00 | 0.00 | 97 | 1014.0 |
| 20260507093654 | 42 | 353 | 0.0 | 0.0 | 0.00 | 0.00 | 0.00 | 97 | 1013.8 |
| 20260507093153 | 42 | 353 | 0.0 | 0.0 | 0.00 | 0.00 | 0.00 | 96 | 1014.0 |
| 20260507092649 | 42 | 353 | 0.0 | 0.0 | 0.00 | 0.00 | 0.00 | 95 | 1013.8 |
| 20260507092145 | 42 | 353 | 0.0 | 0.0 | 0.00 | 0.00 | 0.00 | 95 | 1013.7 |
| 20260507091642 | 43 | 353 | 0.0 | 0.0 | 0.00 | 0.00 | 0.00 | 94 | 1013.9 |
| 20260507091138 | 43 | 353 | 0.0 | 0.0 | 0.00 | 0.00 | 0.00 | 94 | 1014.0 |
| 20260507090634 | 44 | 353 | 0.0 | 0.0 | 0.00 | 0.00 | 0.00 | 93 | 1013.8 |
| 20260507090132 | 44 | 353 | 0.0 | 0.0 | 0.00 | 0.00 | 0.00 | 92 | 1013.9 |
| 20260507085628 | 44 | 353 | 0.0 | 0.0 | 0.00 | 0.00 | 0.00 | 95 | 1014.0 |
| 20260507085125 | 44 | 353 | 0.0 | 0.0 | 0.00 | 0.00 | 0.00 | 96 | 1013.9 |
| 20260507084621 | 44 | 353 | 0.0 | 0.0 | 0.00 | 0.00 | 0.00 | 96 | 1013.8 |
| 20260507084118 | 44 | 353 | 0.0 | 0.0 | 0.00 | 0.00 | 0.00 | 96 | 1014.0 |
| 20260507083615 | 45 | 2 | 0.0 | 0.0 | 0.00 | 0.00 | 0.00 | 94 | 1014.1 |
| 20260507083112 | 45 | 2 | 0.0 | 0.0 | 0.00 | 0.00 | 0.00 | 93 | 1014.0 |
| 20260507082608 | 45 | 2 | 0.0 | 0.0 | 0.00 | 0.00 | 0.00 | 93 | 1013.8 |
| 20260507082104 | 44 | 0 | 0.0 | 0.0 | 0.00 | 0.00 | 0.00 | 95 | 1013.7 |
| 20260507081601 | 45 | 0 | 0.0 | 0.0 | 0.00 | 0.00 | 0.00 | 97 | 1013.8 |
| 20260507081058 | 44 | 359 | 0.0 | 0.0 | 0.00 | 0.00 | 0.00 | 97 | 1014.2 |
| 20260507080554 | 44 | 317 | 0.0 | 0.0 | 0.00 | 0.00 | 0.00 | 98 | 1013.8 |
| 20260507080050 | 45 | 317 | 0.0 | 0.0 | 0.00 | 0.00 | 0.00 | 97 | 1013.8 |
| 20260507075545 | 45 | 317 | 0.0 | 0.0 | 0.00 | 0.00 | 0.00 | 97 | 1013.9 |
| 20260507075042 | 45 | 317 | 0.0 | 0.0 | 0.00 | 0.00 | 0.00 | 97 | 1013.9 |
| 20260507074539 | 45 | 317 | 0.0 | 0.0 | 0.00 | 0.00 | 0.00 | 97 | 1013.7 |
| 20260507074037 | 45 | 317 | 0.0 | 0.0 | 0.00 | 0.00 | 0.00 | 97 | 1013.6 |
| 20260507073533 | 45 | 317 | 0.0 | 0.0 | 0.00 | 0.00 | 0.00 | 97 | 1013.9 |
| 20260507073030 | 45 | 317 | 0.0 | 0.0 | 0.00 | 0.00 | 0.00 | 97 | 1013.8 |
| 20260507072527 | 45 | 317 | 0.0 | 0.0 | 0.00 | 0.00 | 0.00 | 97 | 1013.8 |
| 20260507072024 | 45 | 317 | 0.0 | 0.0 | 0.00 | 0.00 | 0.00 | 97 | 1013.8 |
| 20260507071522 | 45 | 317 | 0.0 | 0.0 | 0.00 | 0.00 | 0.00 | 97 | 1013.7 |
| 20260507071018 | 45 | 317 | 0.0 | 0.0 | 0.00 | 0.00 | 0.00 | 97 | 1013.8 |
| 20260507070516 | 45 | 317 | 0.0 | 0.0 | 0.00 | 0.00 | 0.00 | 97 | 1013.6 |
| 20260507070014 | 45 | 317 | 0.0 | 0.0 | 0.00 | 0.00 | 0.00 | 98 | 1013.5 |
| 20260507065509 | 45 | 317 | 0.0 | 0.0 | 0.00 | 0.00 | 0.00 | 98 | 1013.7 |
| 20260507065006 | 45 | 317 | 0.0 | 0.0 | 0.00 | 0.00 | 0.00 | 98 | 1013.6 |
| 20260507064504 | 45 | 317 | 0.0 | 0.0 | 0.00 | 0.00 | 0.00 | 98 | 1013.7 |
| 20260507064002 | 45 | 317 | 0.0 | 0.0 | 0.00 | 0.00 | 0.00 | 97 | 1013.5 |
| 20260507063458 | 45 | 317 | 0.0 | 0.9 | 0.00 | 0.00 | 0.00 | 97 | 1013.8 |
| 20260507062956 | 46 | 317 | 0.0 | 0.0 | 0.00 | 0.00 | 0.00 | 96 | 1013.7 |
| 20260507062453 | 46 | 317 | 0.0 | 0.0 | 0.00 | 0.00 | 0.00 | 96 | 1013.8 |
| 20260507061950 | 46 | 317 | 0.0 | 0.0 | 0.00 | 0.00 | 0.00 | 96 | 1013.6 |
| 20260507061448 | 46 | 317 | 0.0 | 0.0 | 0.00 | 0.00 | 0.00 | 96 | 1013.6 |
| 20260507060946 | 46 | 317 | 0.0 | 0.0 | 0.00 | 0.00 | 0.00 | 96 | 1013.8 |
| 20260507060443 | 46 | 317 | 0.0 | 0.0 | 0.00 | 0.00 | 0.00 | 96 | 1013.8 |
| 20260507055939 | 46 | 317 | 0.0 | 0.0 | 0.00 | 0.00 | 0.00 | 96 | 1013.9 |
| 20260507055434 | 46 | 317 | 0.0 | 0.9 | 0.00 | 0.00 | 0.00 | 97 | 1013.9 |
| 20260507054932 | 46 | 357 | 0.0 | 0.0 | 0.00 | 0.00 | 0.00 | 97 | 1014.1 |
| 20260507054428 | 46 | 356 | 0.0 | 0.0 | 0.00 | 0.00 | 0.00 | 98 | 1014.1 |
| 20260507053925 | 46 | 356 | 0.0 | 0.0 | 0.00 | 0.00 | 0.00 | 98 | 1014.2 |
| 20260507053422 | 46 | 335 | 0.0 | 0.9 | 0.00 | 0.00 | 0.00 | 99 | 1014.3 |
| 20260507052921 | 46 | 358 | 0.0 | 0.0 | 0.00 | 0.00 | 0.00 | 99 | 1014.2 |
| 20260507052417 | 46 | 1 | 0.0 | 0.9 | 0.00 | 0.00 | 0.00 | 99 | 1014.1 |
| 20260507051909 | 46 | 1 | 0.0 | 1.7 | 0.00 | 0.00 | 0.00 | 99 | 1014.4 |
| 20260507051407 | 47 | 350 | 0.0 | 2.6 | 0.00 | 0.00 | 0.00 | 99 | 1014.3 |
| 20260507050904 | 47 | 256 | 3.5 | 6.1 | 0.00 | 0.00 | 0.00 | 99 | 1014.2 |
| 20260507050400 | 47 | 248 | 1.7 | 1.7 | 0.00 | 0.00 | 0.00 | 99 | 1014.2 |
| 20260507045857 | 47 | 283 | 0.0 | 0.9 | 0.00 | 0.00 | 0.00 | 99 | 1014.3 |
| 20260507045353 | 47 | 280 | 0.0 | 0.0 | 0.00 | 0.00 | 0.00 | 99 | 1014.2 |
| 20260507044851 | 47 | 267 | 0.9 | 0.9 | 0.00 | 0.00 | 0.00 | 99 | 1014.2 |
| 20260507044347 | 47 | 256 | 0.9 | 1.7 | 0.00 | 0.00 | 0.00 | 99 | 1014.1 |
| 20260507043843 | 47 | 303 | 0.0 | 0.0 | 0.00 | 0.00 | 0.00 | 99 | 1014.0 |
| 20260507043340 | 47 | 304 | 0.0 | 0.0 | 0.00 | 0.00 | 0.00 | 99 | 1014.5 |
| 20260507042836 | 47 | 304 | 0.0 | 0.0 | 0.00 | 0.00 | 0.00 | 99 | 1014.2 |
| 20260507042332 | 47 | 335 | 0.0 | 0.0 | 0.00 | 0.00 | 0.00 | 99 | 1014.1 |
| 20260507041829 | 47 | 338 | 0.0 | 0.0 | 0.00 | 0.00 | 0.00 | 99 | 1014.3 |
| 20260507041326 | 47 | 348 | 0.0 | 0.0 | 0.00 | 0.00 | 0.00 | 99 | 1014.2 |
| 20260507040823 | 47 | 305 | 0.0 | 0.9 | 0.00 | 0.00 | 0.00 | 99 | 1014.3 |
| 20260507040319 | 47 | 286 | 0.0 | 0.0 | 0.00 | 0.00 | 0.00 | 99 | 1014.0 |
| 20260507035815 | 47 | 260 | 0.0 | 0.0 | 0.00 | 0.27 | 0.27 | 99 | 1014.1 |
| 20260507035310 | 47 | 260 | 0.0 | 0.0 | 0.00 | 0.27 | 0.27 | 99 | 1014.2 |
| 20260507034808 | 47 | 242 | 0.0 | 0.9 | 0.00 | 0.27 | 0.27 | 99 | 1014.4 |
| 20260507034305 | 47 | 242 | 0.9 | 0.9 | 0.00 | 0.27 | 0.27 | 99 | 1014.0 |
| 20260507033803 | 47 | 269 | 0.0 | 0.0 | 0.00 | 0.27 | 0.27 | 99 | 1013.9 |
| 20260507033301 | 47 | 269 | 0.0 | 0.0 | 0.00 | 0.27 | 0.27 | 99 | 1014.1 |
| 20260507032757 | 47 | 269 | 0.0 | 0.0 | 0.00 | 0.27 | 0.27 | 99 | 1014.4 |
| 20260507032253 | 47 | 270 | 0.0 | 0.0 | 0.00 | 0.27 | 0.27 | 99 | 1014.6 |
| 20260507031750 | 47 | 267 | 0.0 | 0.0 | 0.00 | 0.27 | 0.27 | 99 | 1014.5 |
| 20260507031247 | 47 | 249 | 0.9 | 0.9 | 0.00 | 0.27 | 0.27 | 99 | 1014.7 |
| 20260507030744 | 47 | 270 | 0.0 | 0.0 | 0.00 | 0.27 | 0.27 | 99 | 1014.4 |
| 20260507030241 | 47 | 269 | 0.0 | 1.7 | 0.00 | 0.27 | 0.27 | 99 | 1014.5 |
| 20260507025738 | 47 | 244 | 0.9 | 0.9 | 0.00 | 0.27 | 0.27 | 99 | 1013.8 |
| 20260507025235 | 47 | 247 | 0.0 | 0.0 | 0.00 | 0.27 | 0.27 | 99 | 1014.2 |
| 20260507024734 | 47 | 262 | 0.0 | 0.0 | 0.00 | 0.27 | 0.27 | 99 | 1014.2 |
| 20260507024231 | 47 | 257 | 0.0 | 0.0 | 0.00 | 0.27 | 0.27 | 99 | 1014.0 |
| 20260507023726 | 47 | 257 | 0.0 | 0.0 | 0.05 | 0.27 | 0.27 | 99 | 1014.2 |
| 20260507023223 | 47 | 233 | 0.9 | 2.6 | 0.05 | 0.27 | 0.27 | 99 | 1014.1 |
| 20260507022720 | 48 | 237 | 0.0 | 1.7 | 0.00 | 0.26 | 0.26 | 99 | 1014.1 |
| 20260507022216 | 48 | 262 | 0.0 | 0.0 | 0.00 | 0.26 | 0.26 | 99 | 1013.9 |
| 20260507021713 | 48 | 262 | 0.0 | 0.0 | 0.00 | 0.26 | 0.26 | 99 | 1013.8 |
| 20260507021208 | 48 | 262 | 0.0 | 0.0 | 0.00 | 0.26 | 0.26 | 99 | 1013.9 |
| 20260507020707 | 48 | 262 | 0.0 | 0.0 | 0.00 | 0.26 | 0.26 | 99 | 1014.0 |
| 20260507020202 | 48 | 262 | 0.0 | 0.0 | 0.00 | 0.26 | 0.26 | 99 | 1013.9 |
| 20260507015700 | 48 | 262 | 0.0 | 0.0 | 0.00 | 0.26 | 0.26 | 99 | 1013.5 |
| 20260507015157 | 47 | 262 | 0.0 | 0.0 | 0.00 | 0.26 | 0.26 | 99 | 1013.6 |
| 20260507014653 | 48 | 262 | 0.0 | 0.0 | 0.00 | 0.26 | 0.26 | 99 | 1013.6 |
| 20260507014149 | 47 | 262 | 0.0 | 0.0 | 0.00 | 0.26 | 0.26 | 98 | 1013.6 |
| 20260507013646 | 47 | 262 | 0.0 | 0.9 | 0.00 | 0.26 | 0.26 | 98 | 1013.7 |
| 20260507013144 | 47 | 273 | 0.0 | 0.9 | 0.00 | 0.26 | 0.26 | 98 | 1013.8 |
| 20260507012641 | 48 | 267 | 1.7 | 1.7 | 0.00 | 0.26 | 0.26 | 98 | 1013.9 |
| 20260507012131 | 47 | 261 | 0.9 | 0.9 | 0.00 | 0.26 | 0.26 | 97 | 1013.5 |
| 20260507011630 | 48 | 261 | 0.9 | 0.9 | 0.00 | 0.26 | 0.26 | 98 | 1013.0 |
| 20260507011125 | 48 | 339 | 0.0 | 0.0 | 0.00 | 0.26 | 0.26 | 98 | 1012.8 |
| 20260507010620 | 48 | 339 | 0.0 | 0.0 | 0.00 | 0.26 | 0.26 | 98 | 1013.1 |
| 20260507010116 | 48 | 338 | 0.0 | 0.0 | 0.00 | 0.26 | 0.26 | 97 | 1013.2 |
| 20260507005614 | 48 | 337 | 0.0 | 0.0 | 0.00 | 0.26 | 0.26 | 97 | 1013.2 |
| 20260507005110 | 48 | 274 | 0.9 | 1.7 | 0.00 | 0.26 | 0.26 | 97 | 1013.7 |
| 20260507004607 | 48 | 331 | 0.9 | 0.9 | 0.00 | 0.26 | 0.26 | 97 | 1013.7 |
| 20260507004104 | 48 | 358 | 0.0 | 0.9 | 0.00 | 0.26 | 0.26 | 97 | 1013.6 |
| 20260507003600 | 48 | 336 | 0.0 | 0.0 | 0.00 | 0.26 | 0.26 | 97 | 1013.6 |
| 20260507003055 | 48 | 309 | 1.7 | 2.6 | 0.00 | 0.26 | 0.26 | 96 | 1013.5 |
| 20260507002552 | 48 | 357 | 0.0 | 1.7 | 0.00 | 0.26 | 0.26 | 96 | 1013.5 |
| 20260507002048 | 49 | 336 | 0.0 | 0.9 | 0.00 | 0.26 | 0.26 | 95 | 1013.6 |
| 20260507001545 | 49 | 0 | 0.9 | 2.6 | 0.00 | 0.26 | 0.26 | 94 | 1013.5 |
| 20260507001042 | 49 | 335 | 0.9 | 3.5 | 0.00 | 0.26 | 0.26 | 94 | 1013.8 |
| 20260507000538 | 49 | 300 | 0.0 | 2.6 | 0.00 | 0.26 | 0.26 | 94 | 1013.8 |
| 20260507000034 | 50 | 342 | 0.0 | 0.9 | 0.00 | 0.26 | 0.26 | 95 | 1013.8 |
| 20260506235531 | 50 | 301 | 0.0 | 0.0 | 0.00 | 0.26 | 0.26 | 94 | 1013.7 |
| 20260506235027 | 50 | 339 | 0.9 | 1.7 | 0.00 | 0.26 | 0.26 | 94 | 1013.5 |
| 20260506234524 | 50 | 305 | 0.0 | 0.9 | 0.00 | 0.26 | 0.26 | 94 | 1013.5 |
| 20260506234016 | 50 | 307 | 1.7 | 1.7 | 0.00 | 0.26 | 0.26 | 94 | 1013.4 |
| 20260506233512 | 50 | 305 | 0.0 | 3.5 | 0.00 | 0.26 | 0.26 | 95 | 1013.3 |
| 20260506233010 | 50 | 287 | 1.7 | 1.7 | 0.00 | 0.26 | 0.26 | 95 | 1013.3 |
| 20260506232506 | 50 | 322 | 0.0 | 1.7 | 0.00 | 0.26 | 0.26 | 95 | 1013.4 |
| 20260506232001 | 50 | 294 | 0.0 | 0.9 | 0.00 | 0.26 | 0.26 | 95 | 1013.1 |